Location: Neuvy Saint Sepulchre
(46.5953°N, 1.8122°E)
Time: 09:30:06
(UTC+02:00)

ISS - Pass Details

Date: 12 July 2021
Orbit: 419 x 421 km, 51.6° (Epoch: 04 August)

Event Time Altitude Azimuth Distance (km) Brightness Sun altitude
Rises 23:38:03 0° 220° (SW) 2,357 -0.1 -14.6°
Reaches altitude 10° 23:40:14 10° 212° (SSW) 1,497 -1.2 -14.8°
Maximum altitude 23:43:22 36° 143° (SE) 680 -3.3 -15.1°
Drops below altitude 10° 23:46:30 10° 75° (ENE) 1,504 -1.1 -15.3°
Sets 23:48:41 0° 67° (ENE) 2,371 0.0 -15.5°
